Location: Unspecified
(0.0000°N, 0.0000°E)
Time: 19:34:29
(UTC+02:00)

NATO 3D Rocket - Visible Passes

Search period start: 07 July 2015 00:00
Search period end: 17 July 2015 00:00
Orbit: 670 x 2296 km, 21.5° (Epoch: 05 July)

Date Brightness Start Highest point End Pass type
(mag) Time Alt. Az. Time Alt. Az. Time Alt. Az.
07 Jul 6.5 04:35:24 13° ENE 04:35:24 13° ENE 04:36:02 10° ENE visible
07 Jul 5.3 06:30:57 20° WNW 06:33:55 30° NNW 06:40:32 10° NE visible
07 Jul 6.1 21:14:17 10° SW 21:19:43 16° SSW 21:23:33 11° SSE visible
08 Jul 5.0 05:37:33 33° N 05:37:33 33° N 05:42:31 10° NE visible
08 Jul 6.1 07:36:40 10° NW 07:41:24 19° N 07:47:16 10° NE visible
08 Jul 6.4 22:24:20 10° SSW 22:25:46 12° SSW 22:25:46 12° SSW visible
09 Jul 6.4 04:44:10 13° NE 04:44:10 13° NE 04:44:56 10° NE visible
09 Jul 5.8 06:39:43 11° NW 06:43:41 20° N 06:48:45 10° NE visible
09 Jul 6.1 21:24:14 10° SW 21:29:33 16° S 21:32:26 13° SSE visible
10 Jul 5.4 05:46:20 21° NNW 05:46:20 21° NNW 05:50:51 10° NE visible
10 Jul 6.3 20:23:47 10° SW 20:31:20 20° S 20:37:18 10° SSE visible
10 Jul 6.4 22:32:55 10° SSW 22:34:41 13° SSW 22:34:41 13° SSW visible
11 Jul 6.4 04:52:55 12° NE 04:52:55 12° NE 04:53:30 10° NE visible
11 Jul 6.0 06:50:41 10° NNW 06:53:33 14° N 06:56:47 10° NNE visible
11 Jul 6.1 21:33:30 10° SW 21:39:28 17° S 21:41:23 16° SSE visible
12 Jul 5.8 05:55:05 13° NNW 05:56:01 13° N 05:58:48 10° NNE visible
12 Jul 6.3 20:33:31 10° SW 20:41:10 20° S 20:47:18 10° SE visible
12 Jul 6.4 22:41:14 10° SW 22:43:40 16° SSW 22:43:40 16° SSW visible
13 Jul 6.4 05:01:41 10° NNE 05:01:41 10° NNE 05:01:41 10° NNE visible
13 Jul 6.5 07:03:11 10° N 07:03:29 10° N 07:03:50 10° N visible
13 Jul 5.9 21:42:13 10° SW 21:49:23 21° S 21:50:25 21° SSE visible
14 Jul 6.2 20:42:41 10° SW 20:51:04 22° S 20:57:12 12° SE visible
14 Jul 6.3 22:49:31 10° SW 22:52:47 20° SSW 22:52:47 20° SSW visible
15 Jul 5.6 21:50:39 10° SW 21:59:13 28° S 21:59:36 28° SSE visible
16 Jul 6.0 20:51:25 10° SW 21:00:55 27° S 21:06:28 16° SE visible
16 Jul 6.1 22:57:50 10° SW 23:02:03 25° SW 23:02:03 25° SW visible
